Starlink 6375

operational
NORAD ID: 57342 Int'l Des: 2023-099 Owner: SPXS Country: US Constellation: starlink
LEOCIRCULAR

Über Starlink 6375

Beschreibung wird geladen...

Live-Position

3D-Globus wird geladen...

Nächste Überflüge

Höhenverlauf

Altitude vs Time

uPlot chart will show altitude changes over time

Zweizeiliger Elementsatz

1 57342U 23099Q 25304.81199375 .00000662 00000-0 64079-4 0 9995
2 57342 43.0040 228.9466 0000868 219.4006 140.6773 15.02538806126730
Epoch: 31. Okt. 2025 • Age: 20 hours

Aktueller Status

Höhe 562.2 km
Geschwindigkeit 7.59 km/s
Subsatellitenpunkt 41.51°N, 66.22°E
Startdatum 16. Juli 2023
Alter 2.2 years
Typ internet

Technische Details

Klassifizierung Payload
Masse 305.00 kg
Trockenmasse 290.00 kg
Gesamtmasse 305.00 kg
Länge 0.20 m
Durchmesser 2.80 m
Spannweite 9.00 m
Form Box + pan
Hersteller SPXS
Bus-Typ Starlink
Phasenstatus In Orbit
Besitzer/Staat SPXS/US

Große Konstellationen

Loading constellations...